Probability
0 0 0 0 0 0 0 0 0 0 0 0 0 0 0 0 0 0 0 0 0 0 0 0 0 0 0 0 0 0 0 0 0 0 0 0 0 0 0 0 0 0 0
0 0 0 0 0 0 0 0 0 0 0 0 0 0 0 0 0 0 0 0 0 0 0 0 0 0 0 0 0 0 0 0 0 0 0 0 0 0 0 0 0 0 0
0 0 0 0 0 0 0 0 0 0 0 0 0 0 0 0 0 0 0 0 0 0 0 0 0 0 0 0 0 0 0 0 0 0 0 0 0 0 0 0 0 0 0
0 0 0 0 0 0 0 0 0 0 0 0 0 0 0 0 0 0 0 0 0 0 0 0 0 0 0 0 0 0 0 0 0 0 0 0 0 0 0 0 0 0 0
0 0 0 0 0 0 0 0 0 0 0 0 0 0 0 0 0 0 0 0 0 0 0 0 0 0 0 0 0 0 0 0 0 0 0 0 0 0 0 0 0 0 0
0 0 0 0 0 0 0 0 0 0 0 0 0 0 0 0 0 0 0 0 0 0 0 0 0 0 0 0 0 0 0 0 0 0 0 0 0 0 0 0 0 0 0
0 0 0 0 0 0 0 0 0 0 0 0 0 0 0 0 0 0 0 0 0 0 0 0 0 0 0 0 0 0 0 0 0 0 0 0 0 0 0 0 0 0 0
0 0 0 0 0 0 0 0 0 0 0 0 0 0 0 0 0 0 0 0 0 0 0 0 0 0 0 0 0 0 0 0 0 0 0 0 0 0 0 0 0 0 0
0 0 0 0 0 0 0 0 0 0 0 0 0 0 0 0 0 0 0 0 0 0 0 0 0 0 0 0 0 0 0 0 0 0 0 0 0 0 0 0 0 0 0
0 0 0 0 0 0 0 0 0 0 0 0 0 0 0 0 0 0 0 0 0 0 0 0 0 0 0 0 0 0 0 0 0 0 0 0 0 0 0 0 0 0 0
0 0 0 0 0 0 0 0 0 0 0 0 0 0 0 0 0 0 0 0 0 0 0 0 0 0 0 0 0 0 0 0 0 0 0 0 0 0 0 0 0 0 0
0 0 0 0 0 0 0 0 0 0 0 0 0 0 0 0 0 0 0 0 0 0 0 0 0 0 0 0 0 0 0 0 0 0 0 0 0 0 0 0 0 0 0
0 0 0 0 0 0 0 0 0 0 0 0 0 0 0 0 0 0 0 0 0 0 0 0 0 0 0 0 0 0 0 0 0 0 0 0 0 0 0 0 0 0 0
0 0 0 0 0 0 0 0 0 0 0 0 0 0 0 0 0 0 0 0 0 0 0 0 0 0 0 0 0 0 0 0 0 0 0 0 0 0 0 0 0 0 0
0 0 0 0 0 0 0 0 0 0 0 0 0 0 0 0 0 0 0 0 0 0 0 0 0 0 0 0 0 0 0 0 0 0 0 0 0 0 0 0 0 0 0
0 0 0 0 0 0 0 0 0 0 0 0 0 0 0 0 0 0 0 0 0 0 0 0 0 0 0 0 0 0 0 0 0 0 0 0 0 0 0 0 0 0 0
0 0 0 0 0 0 0 0 0 0 0 0 0 0 0 0 0 0 0 0 0 0 0 0 0 0 0 0 0 0 0 0 0 0 0 0 0 0 0 0 0 0 0
0 0 0 0 0 0 0 0 0 0 0 0 0 0 0 0 0 0 0 0 0 0 0 0 0 0 0 0 0 0 0 0 0 0 0 0 0 0 0 0 0 0 0
0 0 0 0 0 0 0 0 0 0 0 0 0 0 0 0 0 0 0 0 0 0 0 0 0 0 0 0 0 0 0 0 0 0 0 0 0 0 0 0 0 0 0
0 0 0 0 0 0 0 0 0 0 0 0 0 0 0 0 0 0 0 0 0 0 0 0 0 0 0 0 0 0 0 0 0 0 0 0 0 0 0 0 0 0 0
0 0 0 0 0 0 0 0 0 0 0 0 0 0 0 0 0 0 0 0 0 0 0 0 0 0 0 0 0 0 0 0 0 0 0 0 0 0 0 0 0 0 0
0 0 0 0 0 0 0 0 0 0 0 0 0 0 0 0 0 0 0 0 0 0 0 0 0 0 0 0 0 0 0 0 0 0 0 0 0 0 0 0 0 0 0
0 0 0 0 0 0 0 0 0 0 0 0 0 0 0 0 0 0 0 0 0 0 0 0 0 0 0 0 0 0 0 0 0 0 0 0 0 0 0 0 0 0 0
0 0 0 0 0 0 0 0 0 0 0 0 0 0 0 0 0 0 0 0 0 0 0 0 0 0 0 0 0 0 0 0 0 0 0 0 0 0 0 0 0 0 0
0 0 0 0 0 0 0 0 0 0 0 0 0 0 0 0 0 0 0 0 0 0 0 0 0 0 0 0 0 0 0 0 0 0 0 0 0 0 0 0 0 0 0
0 0 0 0 0 0 0 0 0 0 0 0 0 0 0 0 0 0 0 0 0 0 0 0 0 0 0 0 0 0 0 0 0 0 0 0 0 0 0 0 0 0 0
Height
5624 5627 5631 5635 5639 5643 5647 5650 5654 5658 5662 5666 5670 5672 5675 5677 5678 5680 5681 5682 5682 5683 5683 5683 5683 5682 5682 5681 5679 5678 5677 5676 5675 5678 5678 5677 5675 5674 5672 5671 5671 5670 5670
5623 5627 5630 5633 5636 5639 5642 5644 5647 5651 5655 5658 5660 5663 5664 5666 5667 5668 5669 5669 5670 5670 5671 5670 5670 5669 5668 5667 5666 5665 5664 5662 5661 5661 5662 5661 5660 5658 5657 5657 5656 5656 5656
5624 5626 5628 5630 5632 5634 5637 5639 5641 5644 5646 5649 5651 5652 5654 5655 5656 5657 5658 5658 5658 5658 5658 5658 5657 5656 5655 5654 5652 5651 5650 5649 5647 5646 5646 5645 5644 5643 5642 5642 5642 5641 5641
5623 5624 5626 5627 5629 5631 5633 5634 5636 5637 5638 5640 5641 5643 5644 5644 5644 5645 5645 5646 5646 5646 5645 5645 5644 5642 5641 5640 5639 5637 5636 5634 5632 5631 5630 5630 5629 5628 5627 5627 5626 5627 5627
5622 5623 5624 5625 5626 5627 5628 5629 5630 5630 5631 5632 5632 5633 5632 5632 5633 5633 5633 5633 5633 5633 5633 5631 5630 5629 5628 5626 5624 5623 5621 5619 5617 5616 5615 5614 5613 5612 5611 5611 5611 5612 5613
5620 5621 5621 5622 5622 5623 5623 5623 5623 5623 5623 5623 5622 5622 5621 5621 5621 5621 5620 5621 5620 5620 5619 5618 5617 5616 5614 5612 5610 5608 5606 5604 5602 5600 5599 5598 5597 5596 5596 5596 5597 5598 5599
5618 5618 5618 5618 5618 5617 5616 5616 5615 5614 5614 5613 5612 5611 5610 5609 5609 5608 5608 5607 5607 5606 5605 5605 5603 5602 5600 5598 5596 5593 5591 5588 5587 5585 5584 5583 5582 5582 5582 5582 5583 5584 5585
5615 5614 5613 5612 5611 5610 5608 5607 5606 5605 5604 5603 5601 5600 5598 5597 5595 5595 5594 5593 5593 5592 5591 5590 5589 5587 5585 5582 5580 5578 5576 5574 5572 5571 5570 5569 5568 5568 5569 5569 5570 5571 5572
5610 5608 5607 5605 5604 5602 5600 5598 5597 5595 5593 5591 5589 5587 5585 5584 5582 5581 5579 5579 5578 5577 5576 5575 5574 5572 5570 5567 5565 5564 5562 5560 5558 5557 5556 5555 5555 5555 5556 5556 5557 5558 5560
5604 5602 5600 5598 5596 5593 5592 5590 5587 5585 5582 5579 5577 5574 5572 5570 5567 5566 5564 5563 5562 5562 5561 5559 5557 5556 5554 5551 5549 5548 5547 5546 5545 5544 5543 5543 5543 5543 5543 5544 5545 5546 5547
5598 5595 5593 5590 5588 5585 5583 5580 5577 5574 5571 5568 5566 5563 5559 5556 5553 5551 5549 5547 5546 5545 5544 5543 5541 5539 5537 5536 5534 5533 5533 5532 5531 5530 5530 5531 5531 5531 5531 5532 5534 5535 5537
5591 5588 5585 5582 5579 5576 5572 5569 5566 5563 5560 5557 5554 5550 5546 5543 5540 5537 5534 5532 5530 5529 5528 5527 5526 5524 5522 5521 5520 5519 5518 5518 5518 5518 5518 5519 5520 5520 5520 5521 5523 5525 5526
5584 5580 5577 5573 5570 5566 5562 5559 5555 5552 5550 5546 5542 5539 5534 5530 5527 5524 5521 5518 5516 5515 5514 5513 5512 5510 5509 5508 5507 5506 5505 5505 5505 5506 5506 5507 5508 5509 5510 5511 5513 5515 5516
5576 5572 5568 5564 5560 5556 5552 5548 5545 5541 5538 5534 5530 5526 5522 5517 5513 5510 5508 5505 5503 5502 5500 5499 5498 5497 5496 5496 5495 5494 5493 5493 5493 5493 5494 5495 5496 5498 5499 5501 5503 5504 5506
5567 5563 5559 5554 5550 5546 5542 5537 5534 5530 5525 5521 5517 5513 5509 5505 5500 5497 5495 5493 5491 5490 5488 5487 5486 5485 5485 5484 5483 5482 5482 5482 5482 5482 5483 5484 5486 5488 5489 5491 5493 5494 5496
5559 5554 5550 5545 5540 5536 5532 5527 5522 5518 5513 5508 5504 5500 5496 5492 5488 5486 5483 5481 5479 5478 5477 5476 5475 5474 5473 5472 5472 5471 5471 5471 5471 5472 5473 5474 5476 5478 5479 5481 5483 5485 5487
5551 5546 5541 5536 5531 5527 5522 5517 5513 5508 5503 5498 5493 5489 5484 5481 5478 5475 5473 5471 5469 5468 5467 5465 5464 5463 5462 5461 5461 5461 5461 5460 5461 5461 5463 5465 5466 5468 5470 5472 5474 5476 5478
5542 5537 5532 5527 5522 5517 5512 5508 5503 5499 5494 5489 5484 5480 5475 5471 5468 5466 5464 5462 5460 5459 5457 5456 5455 5453 5452 5452 5452 5451 5451 5451 5452 5452 5454 5455 5457 5459 5462 5464 5466 5468 5469
5533 5528 5523 5518 5513 5508 5503 5499 5494 5490 5486 5481 5477 5473 5468 5464 5461 5458 5456 5454 5452 5450 5449 5448 5446 5445 5444 5443 5443 5443 5443 5443 5444 5445 5446 5447 5449 5451 5453 5455 5457 5458 5460
5524 5519 5514 5510 5505 5500 5495 5490 5486 5482 5478 5474 5470 5466 5462 5458 5454 5452 5449 5447 5445 5443 5441 5440 5439 5438 5437 5436 5435 5435 5435 5436 5437 5437 5439 5440 5441 5443 5444 5446 5448 5449 5451
5514 5509 5505 5500 5496 5492 5487 5483 5479 5475 5471 5467 5463 5459 5456 5452 5449 5446 5443 5441 5438 5436 5435 5433 5432 5431 5430 5430 5429 5429 5429 5429 5429 5430 5431 5432 5434 5435 5437 5438 5440 5441 5442
5504 5499 5495 5492 5488 5484 5480 5476 5472 5468 5464 5460 5456 5453 5449 5446 5443 5440 5438 5435 5433 5431 5429 5428 5426 5425 5425 5424 5423 5423 5422 5422 5423 5424 5424 5425 5426 5428 5429 5431 5432 5433 5433
5493 5489 5486 5482 5479 5475 5472 5468 5465 5461 5458 5454 5450 5447 5443 5440 5437 5435 5432 5430 5427 5425 5423 5422 5421 5419 5419 5418 5417 5417 5416 5416 5417 5417 5418 5419 5420 5421 5422 5423 5424 5425 5425
5483 5479 5476 5473 5470 5466 5463 5460 5457 5454 5450 5447 5443 5440 5437 5434 5431 5429 5426 5424 5422 5419 5418 5416 5415 5413 5413 5412 5411 5411 5411 5411 5411 5411 5412 5412 5413 5413 5414 5415 5416 5416 5417
5472 5469 5466 5463 5460 5457 5454 5451 5449 5446 5443 5440 5436 5433 5430 5427 5425 5422 5420 5418 5415 5413 5412 5410 5409 5407 5407 5406 5405 5405 5404 5404 5405 5405 5405 5405 5406 5406 5407 5407 5408 5409 5409
5461 5458 5455 5453 5450 5447 5445 5442 5440 5437 5434 5432 5429 5426 5423 5420 5418 5416 5413 5411 5409 5407 5405 5404 5402 5401 5400 5399 5399 5398 5398 5398 5398 5398 5398 5399 5399 5399 5400 5400 5401 5401 5401
Wind_Speed
17 19 20 23 25 28 29 32 34 36 39 40 41 42 44 46 46 46 47 48 48 49 50 50 50 50 51 51 52 52 53 53 53 52 52 52 51 51 52 52 52 51 51
13 16 18 21 23 25 27 28 30 33 36 37 38 40 43 44 45 46 47 46 47 47 48 48 49 49 50 51 52 52 52 53 54 53 51 51 52 51 52 52 52 52 52
10 13 15 17 20 21 23 25 28 31 34 36 37 39 41 43 44 44 44 44 44 44 45 47 47 49 50 50 51 51 51 53 53 53 52 52 51 51 52 52 52 52 51
8 9 10 13 16 19 22 25 27 29 30 32 34 36 39 42 44 44 44 44 44 45 46 47 48 48 49 50 51 51 51 52 53 53 54 53 52 52 53 53 53 52 51
8 9 10 12 14 18 21 23 26 28 30 32 33 35 37 39 41 43 44 45 45 46 46 46 46 47 48 50 50 50 51 52 53 53 53 54 53 53 52 51 52 51 49
10 12 12 13 16 19 21 23 25 27 30 32 35 37 38 38 40 43 44 45 45 46 45 45 46 47 48 49 50 51 52 53 53 53 54 53 52 51 51 50 50 49 48
12 14 16 17 19 21 24 26 28 30 32 34 36 37 39 40 41 42 44 45 45 45 45 46 47 48 49 49 49 50 51 53 53 52 52 52 50 50 49 48 47 46 46
15 16 18 21 23 25 27 28 29 31 32 34 36 39 39 40 41 42 44 45 45 46 46 47 46 47 48 48 49 50 51 51 51 50 51 50 49 47 47 46 46 45 45
18 19 21 23 25 28 29 30 32 33 34 35 36 38 38 39 41 42 44 45 46 47 47 48 48 48 48 48 48 48 48 48 48 48 47 47 46 45 45 44 44 44 43
22 23 24 26 27 29 30 32 34 35 35 35 35 35 38 40 41 43 45 46 47 48 48 49 49 49 49 49 49 48 46 45 45 45 45 44 44 44 43 42 41 40 40
26 27 28 28 29 30 32 34 36 36 35 35 35 37 38 40 42 43 44 44 45 46 46 47 48 49 49 49 48 47 46 45 45 44 43 43 42 41 40 39 38 38 39
29 30 30 30 32 33 34 35 35 35 34 35 37 38 39 40 40 41 42 43 43 43 43 44 45 45 46 47 46 46 45 44 44 43 42 41 40 39 39 39 38 38 37
31 31 32 33 34 35 35 35 35 35 35 36 37 38 39 39 40 40 41 42 43 43 43 43 42 43 43 44 44 44 44 44 43 42 41 41 40 39 38 38 38 37 37
32 33 34 34 35 35 35 36 36 37 37 37 37 38 38 39 39 40 40 41 42 42 43 42 41 41 41 41 41 41 40 41 40 39 39 38 38 37 37 37 37 37 37
34 35 35 35 35 35 35 36 37 38 38 38 38 38 38 38 37 38 38 39 40 40 40 40 40 39 39 39 39 38 37 36 36 35 35 35 35 36 35 35 35 34 33
35 36 36 37 36 36 36 37 36 37 37 38 37 38 38 38 37 36 36 36 36 36 37 37 37 37 37 37 36 35 36 36 36 36 35 34 34 34 33 33 32 31 30
35 36 37 37 36 36 36 36 36 36 36 36 35 35 36 35 34 35 34 33 34 34 34 34 34 34 34 34 34 34 34 34 33 33 33 33 32 31 31 31 31 30 30
36 36 37 37 37 37 36 36 35 34 33 33 33 32 33 33 31 31 31 32 32 32 31 31 30 30 31 31 32 32 31 30 30 30 30 30 30 29 29 30 30 29 29
36 36 37 37 36 37 36 34 34 32 31 30 30 31 31 30 30 29 28 29 29 29 29 28 28 29 28 29 30 30 29 28 28 27 27 27 27 27 27 27 28 28 28
37 37 36 36 36 36 34 33 32 31 30 30 30 29 29 29 28 27 28 28 27 27 27 27 27 27 27 27 28 28 28 27 26 26 26 26 27 27 27 27 27 27 27
38 37 36 36 35 35 33 32 31 31 30 30 30 29 28 28 27 26 26 27 26 26 25 25 25 25 25 25 25 25 25 25 25 24 24 24 25 25 25 25 26 26 27
38 37 36 35 34 34 33 32 31 30 29 29 29 28 28 27 27 26 26 25 25 24 24 23 23 23 23 23 23 22 22 22 22 22 22 22 23 23 24 25 26 26 26
38 37 35 35 34 33 32 31 31 29 28 28 27 27 27 27 27 26 25 25 24 24 23 23 22 22 22 23 23 22 21 21 20 20 21 21 22 23 24 24 25 25 25
38 36 35 35 34 33 33 32 31 30 29 28 27 27 27 27 27 26 25 24 24 24 23 22 22 22 22 22 22 21 20 20 20 20 20 21 22 23 24 24 24 24 24
37 36 35 35 34 33 32 32 31 30 29 28 28 28 27 27 27 27 26 25 24 23 23 22 22 22 22 22 22 21 21 21 21 21 22 22 22 22 22 22 23 23 23
37 36 35 34 33 33 32 32 31 30 29 29 29 28 27 27 27 26 25 24 24 23 23 23 23 22 22 21 21 21 21 21 21 21 21 21 21 21 22 22 23 23 24
Wind_Direction
213 220 226 229 231 235 237 238 238 239 238 239 243 246 249 251 254 257 257 259 260 261 262 263 265 267 267 267 268 270 271 273 275 275 275 275 275 275 275 275 276 278 279
220 225 229 230 234 238 239 238 240 240 241 244 248 251 252 255 258 259 259 260 261 261 262 264 266 266 267 267 269 270 271 273 275 276 276 276 276 275 275 275 276 277 279
224 229 234 235 235 238 242 243 243 246 249 251 255 256 256 257 259 260 261 261 262 264 265 267 267 268 268 269 269 271 272 273 275 276 277 277 276 275 275 276 277 277 278
243 239 241 243 245 246 249 250 251 254 256 257 259 259 260 261 261 261 262 262 264 266 268 269 269 269 270 270 270 271 272 273 274 275 276 276 276 277 276 275 275 276 276
269 264 259 256 255 257 260 259 258 261 262 263 265 265 267 266 263 263 264 264 265 267 269 270 269 271 272 271 271 272 273 273 273 274 275 276 276 276 276 275 274 274 274
285 282 278 274 271 271 270 267 267 269 271 270 272 271 271 269 267 266 265 265 266 267 268 269 269 270 272 272 272 274 274 273 274 274 275 275 276 275 274 274 273 273 272
285 284 286 286 285 281 279 277 275 276 277 276 275 273 272 270 269 267 266 266 267 266 267 268 269 271 272 273 275 276 275 274 273 274 275 275 274 273 273 273 271 270 271
289 287 288 290 291 290 287 285 283 283 282 280 278 277 275 271 269 268 267 267 267 268 268 268 269 270 271 274 275 275 275 273 273 274 275 274 272 272 273 272 270 270 270
298 294 293 294 293 294 293 291 289 287 284 281 281 279 276 275 273 270 269 268 268 268 268 268 270 271 271 273 275 275 275 274 273 274 274 274 273 273 272 270 270 270 270
304 298 297 299 299 299 296 295 293 291 287 285 283 282 279 277 275 273 272 271 270 269 268 270 270 271 272 273 274 274 274 274 274 272 271 271 272 273 272 270 269 268 269
305 300 298 299 299 298 297 297 297 294 291 289 287 286 284 281 277 276 275 274 272 270 269 270 270 271 273 274 272 271 272 273 273 272 270 270 272 271 270 268 266 267 268
306 303 299 299 300 299 298 297 297 294 293 292 291 290 288 285 281 278 276 275 274 272 271 272 272 271 272 273 272 271 272 274 273 270 268 269 270 270 269 267 266 266 266
306 304 301 299 299 298 297 296 295 294 293 293 293 291 290 287 283 281 277 276 275 274 274 274 274 273 273 274 273 273 273 273 272 269 267 269 268 267 266 265 265 267 267
307 306 304 301 300 299 296 295 293 293 293 293 293 292 291 288 284 281 279 277 276 276 276 276 277 277 276 276 276 275 275 274 273 272 270 270 269 267 266 265 264 266 267
309 308 307 304 301 300 299 297 296 295 294 294 293 292 291 289 286 283 281 279 279 279 278 279 278 277 277 276 275 274 273 272 271 271 270 269 270 270 268 266 266 266 267
309 309 308 306 304 301 300 300 299 299 299 298 296 294 293 291 288 285 283 282 282 282 282 281 279 278 277 276 274 272 271 272 271 268 266 266 267 268 266 265 265 265 267
308 309 309 308 306 304 303 302 301 302 302 302 301 299 296 294 290 287 286 283 281 282 283 282 280 278 277 275 273 273 273 271 269 267 265 264 265 265 266 266 265 266 268
307 308 309 309 307 306 305 304 303 303 304 305 306 305 302 299 295 291 288 286 284 283 283 281 279 278 277 274 272 273 273 270 269 268 266 265 265 264 264 263 263 264 265
306 307 308 308 308 308 306 305 305 305 306 306 307 306 305 303 299 295 292 290 287 284 282 280 279 278 276 274 274 274 273 271 270 269 267 265 263 263 263 263 263 264 266
304 305 305 306 307 309 308 307 307 307 306 306 307 307 306 305 301 298 296 295 292 288 284 282 281 279 278 278 276 274 274 272 270 268 267 266 265 265 266 266 266 265 266
301 302 303 304 306 308 308 307 307 307 306 307 307 306 306 306 304 301 299 298 296 294 290 287 284 283 281 280 279 278 275 272 269 268 268 268 268 266 266 267 267 267 267
300 300 301 302 304 305 306 306 306 307 306 308 308 307 306 306 305 304 302 301 299 297 294 290 288 285 282 280 280 280 277 273 270 269 270 269 268 267 267 267 268 268 269
298 298 298 299 301 302 304 305 306 305 305 306 307 307 306 305 304 304 303 302 300 297 294 292 288 284 281 279 278 277 274 271 270 270 270 271 269 269 269 269 269 270 271
297 297 296 297 298 299 300 301 302 303 303 304 305 305 303 302 302 301 301 300 298 296 293 289 287 284 283 281 279 276 274 272 272 273 273 273 272 271 271 271 270 271 271
296 296 295 295 295 296 296 297 298 299 300 301 302 302 301 300 300 300 300 299 297 294 291 288 286 284 283 282 279 276 274 272 273 273 274 274 273 272 271 271 271 271 271
295 294 294 294 294 294 295 295 296 296 297 298 300 300 299 298 299 299 299 299 297 295 292 290 289 286 283 281 280 278 276 275 275 274 274 273 273 273 272 272 272 272 272